Location: Sungai Bunut
(2.6333°N, 113.7333°E)
Time: 02:13:46
(UTC+00:00)

S-56A Canister/Altair - Pass Details

Date: 11 December 2023
Orbit: 640 x 2488 km, 38.9° (Epoch: 24 February)

Event Time Altitude Azimuth Distance (km) Brightness Sun altitude
Rises 00:06:46 0° 250° (WSW) 5,264 11.4 23.7°
Reaches altitude 10° 00:11:18 10° 261° (W) 3,935 10.8 24.7°
Maximum altitude 00:19:10 27° 314° (NW) 2,233 9.6 26.5°
Drops below altitude 10° 00:24:55 10° 11° (NNE) 2,797 10.3 27.8°
Sets 00:27:35 0° 24° (NNE) 3,527 10.9 28.4°
